Regional Weather Roundup
Issued by NWS

Home | Current Version | Previous Version | Graphics & Text | Print | Product List | Glossary On
Versions: 1 2 3 4 5 6 7 8 9 10 11 12 13 14 15 16 17 18 19 20 21 22 23 24 25 26 27 28 29 30 31 32 33 34 35 36 37 38 39 40 41 42 43 44 45 46 47 48 49 50
000
ASUS43 KBIS 051610
RWRND

NORTH DAKOTA REGIONAL WEATHER ROUNDUP
NATIONAL WEATHER SERVICE BISMARCK ND
1100 AM CDT SUN JUL 05 2015

NOTE: "FAIR" INDICATES FEW OR NO CLOUDS BELOW 12,000 FEET WITH NO
SIGNIFICANT WEATHER AND/OR OBSTRUCTIONS TO VISIBILITY.


NDZ001>003-009>011-017-051700-
NORTHWEST NORTH DAKOTA

CITY           SKY/WX    TMP DP  RH WIND       PRES   REMARKS
WILLISTON      PTSUNNY   71  55  56 N22G33    29.92R HAZE
MINOT          CLOUDY    67  63  87 N9        29.81F FOG
MINOT AFB      CLOUDY    68  68 100 N8        29.81S
$$

NDZ018>021-031>035-040>046-051700-
SOUTHWEST NORTH DAKOTA

CITY           SKY/WX    TMP DP  RH WIND       PRES   REMARKS
BISMARCK       PTSUNNY   72  62  71 N12       29.85R
DICKINSON      CLOUDY    66  61  84 SE10      29.84F
GARRISON         N/A     68  62  81 NE13      29.82R
HETTINGER ARPT LGT RAIN  63  60  90 NE24G32   29.84F
$$

NDZ004>008-012>016-024-026-027-054-051700-
NORTHEAST NORTH DAKOTA

CITY           SKY/WX    TMP DP  RH WIND       PRES   REMARKS
GRAND FORKS    CLOUDY    74  69  85 S8        29.72F
GRND FRKS AFB  CLOUDY    73  68  85 S6        29.73F
DEVILS LAKE    CLOUDY    64  61  88 NE17G25   29.74F
$$

NDZ022-023-025-028>030-036>039-047>053-051700-
SOUTHEAST NORTH DAKOTA

CITY           SKY/WX    TMP DP  RH WIND       PRES   REMARKS
FARGO          MOSUNNY   81  67  62 S17       29.74R
JAMESTOWN      CLOUDY    74  68  81 W10       29.77S
$$



USA.gov is the U.S. government's official web portal to all federal, state and local government web resources and services.